Weather History for Palm Springs, CA

Change the Weather History Date:

Saturday, November 16, 2013

  Actual Average Record
Temperature  
Mean Temperature 62 °F 64 °F  
Max Temperature 72 °F 77 °F 92 °F (1995)
Min Temperature 52 °F 52 °F 31 °F (1964)
Degree Days  
Heating Degree Days 3 3  
Month to date heating degree days 3 25  
Since 1 July heating degree days 13 29  
Cooling Degree Days 0 2  
Month to date cooling degree days 69 62  
Year to date cooling degree days 4506 4124  
Growing Degree Days 12 (Base 50)    
Moisture  
Dew Point 42 °F    
Average Humidity 53    
Maximum Humidity 71    
Minimum Humidity 35    
Precipitation  
Precipitation 0.00 in 0.02 in 0.90 in (1952)
Month to date precipitation 0.00 0.21  
Year to date precipitation 2.12 4.54  
Since 1 July precipitation 1.15 1.60  
Snow  
Snow 0.00 in - - ()
Month to date snowfall 0.0  
Year to date snowfall 0.0  
Since 1 July snowfall 0.0  
Snow Depth 0.00 in    
Sea Level Pressure  
Sea Level Pressure 29.76 in    
Wind  
Wind Speed 4 mph (WNW)    
Max Wind Speed 24 mph    
Max Gust Speed 35 mph    
Visibility 10 miles    
Events      
T = Trace of Precipitation, MM = Missing Value Source: NWS Daily Summary

Daily Weather History Graph

Daily Weather History Graph

Search for Another Location

Airport:

Trip Planner

Search our weather history database for the weather conditions in past years. The results will help you decide how hot, cold, wet, or windy it might be!

Date:

Astronomy

Nov. 16, 2013 Rise Set
Actual Time 6:19 AM PST 4:41 PM PST
Civil Twilight 5:52 AM PST 5:08 PM PST
Nautical Twilight 5:22 AM PST 5:38 PM PST
Astronomical Twilight 4:52 AM PST 6:08 PM PST
Moon 4:18 PM PST (11/16) 5:22 AM PST (11/16)
Length of Visible Light 11h 15m
Length of Day
10h 22m
Waxing Gibbous, 99% of the Moon is Illuminated
Nov 16
Waxing Gibbous
Nov 17
Full
Nov 25
Last Quarter
Dec 2
New
Dec 9
First Quarter

Hourly Weather History & Observations

Time (PST) Temp. Dew Point Humidity Pressure Visibility Wind Dir Wind Speed Gust Speed Precip Events Conditions
12:53 AM 57.0 °F 44.1 °F 62% 29.67 in 10.0 mi South 3.5 mph - N/A   Clear
1:53 AM 59.0 °F 43.0 °F 55% 29.68 in 10.0 mi Calm Calm - N/A   Clear
2:53 AM 57.9 °F 43.0 °F 58% 29.69 in 10.0 mi Calm Calm - N/A   Clear
3:53 AM 55.9 °F 43.0 °F 62% 29.70 in 10.0 mi Calm Calm - N/A   Clear
4:53 AM 54.0 °F 42.1 °F 64% 29.70 in 10.0 mi SSE 3.5 mph - N/A   Clear
5:53 AM 52.0 °F 43.0 °F 71% 29.71 in 10.0 mi SW 4.6 mph - N/A   Clear
6:53 AM 55.0 °F 41.0 °F 59% 29.73 in 10.0 mi Calm Calm - N/A   Clear
7:53 AM 61.0 °F 42.1 °F 50% 29.76 in 10.0 mi Calm Calm - N/A   Scattered Clouds
8:53 AM 64.9 °F 41.0 °F 42% 29.78 in 10.0 mi Calm Calm - N/A   Scattered Clouds
9:53 AM 69.1 °F 43.0 °F 39% 29.78 in 10.0 mi East 4.6 mph - N/A   Clear
10:53 AM 71.1 °F 43.0 °F 36% 29.78 in 10.0 mi Calm Calm - N/A   Scattered Clouds
11:53 AM 71.1 °F 43.0 °F 36% 29.75 in 10.0 mi Variable 3.5 mph - N/A   Scattered Clouds
12:53 PM 71.1 °F 44.1 °F 38% 29.74 in 10.0 mi NW 17.3 mph 26.5 mph N/A   Scattered Clouds
1:53 PM 71.1 °F 43.0 °F 36% 29.73 in 10.0 mi NNW 11.5 mph 24.2 mph N/A   Clear
2:53 PM 70.0 °F 42.1 °F 36% 29.74 in 10.0 mi NW 16.1 mph 25.3 mph N/A   Scattered Clouds
3:53 PM 68.0 °F 42.1 °F 39% 29.74 in 10.0 mi NW 16.1 mph 24.2 mph N/A   Scattered Clouds
4:53 PM 66.9 °F 41.0 °F 39% 29.75 in 10.0 mi North 13.8 mph 23.0 mph N/A   Clear
5:53 PM 66.0 °F 41.0 °F 40% 29.78 in 10.0 mi NW 13.8 mph - N/A   Partly Cloudy
6:53 PM 66.0 °F 41.0 °F 40% 29.80 in 10.0 mi NW 9.2 mph 19.6 mph N/A   Partly Cloudy
7:53 PM 64.9 °F 42.1 °F 43% 29.82 in 10.0 mi NW 12.7 mph 24.2 mph N/A   Clear
8:53 PM 64.0 °F 42.1 °F 45% 29.84 in 10.0 mi WNW 4.6 mph - N/A   Clear
9:53 PM 63.0 °F 42.1 °F 46% 29.86 in 10.0 mi NW 13.8 mph 17.3 mph N/A   Clear
10:53 PM 60.1 °F 41.0 °F 49% 29.87 in 10.0 mi Calm Calm - N/A   Clear
11:53 PM 57.0 °F 42.1 °F 57% 29.88 in 10.0 mi SW 3.5 mph - N/A   Clear